• In Italy
  • List of Countries
  • For 7 days
  • Water Temperature
  • Satellite Maps
  • Weather Map
  • Weather Widgets
  • user-avatar
    Login

    Hourly Weather Amar

    Today, 20 September, Thursday

    Time Temperature Precipitation Wind Pressure Humidity
    00:00 +35°C° 0 mm 1 mps 751 mmHg 59%
    01:00 +34°C° 0 mm 1 mps 751 mmHg 60%
    02:00 +34°C° 0 mm 1 mps 751 mmHg 61%
    03:00 +34°C° 0 mm 1 mps 751 mmHg 67%
    04:00 +34°C° 0 mm 1 mps 751 mmHg 67%
    05:00 +34°C° 0 mm 1 mps 751 mmHg 66%
    06:00 +34°C° 0 mm 1 mps 751 mmHg 66%
    07:00 +35°C° 0 mm 1 mps 751 mmHg 62%
    08:00 +36°C° 0 mm 1 mps 752 mmHg 57%
    09:00 +37°C° 0 mm 1 mps 752 mmHg 55%
    10:00 +39°C° 0 mm 1 mps 751 mmHg 50%
    11:00 +40°C° 0 mm 2 mps 751 mmHg 46%
    12:00 +42°C° 0 mm 3 mps 751 mmHg 41%
    13:00 +42°C° 0 mm 4 mps 751 mmHg 41%
    14:00 +42°C° 0 mm 5 mps 750 mmHg 41%
    15:00 +42°C° 0 mm 5 mps 750 mmHg 41%
    16:00 +41°C° 0 mm 5 mps 750 mmHg 47%
    17:00 +39°C° 0 mm 5 mps 750 mmHg 53%
    18:00 +37°C° 0 mm 5 mps 750 mmHg 59%
    19:00 +36°C° 0 mm 4 mps 751 mmHg 61%
    20:00 +36°C° 0 mm 3 mps 751 mmHg 63%
    21:00 +35°C° 0 mm 2 mps 751 mmHg 65%
    22:00 +35°C° 0 mm 2 mps 751 mmHg 66%
    23:00 +33°C° 0 mm 1 mps 751 mmHg 67%

    Tomorrow, 21 September, Friday

    Time Temperature Precipitation Wind Pressure Humidity
    00:00 +31°C° 0 mm 0 mps 750 mmHg 68%
    01:00 +33°C° 0 mm 1 mps 750 mmHg 68%
    02:00 +33°C° 0 mm 1 mps 750 mmHg 68%
    03:00 +32°C° 0 mm 1 mps 750 mmHg 68%
    04:00 +32°C° 0 mm 1 mps 751 mmHg 67%
    05:00 +32°C° 0 mm 2 mps 751 mmHg 65%
    06:00 +34°C° 0 mm 2 mps 751 mmHg 64%
    07:00 +35°C° 0 mm 2 mps 752 mmHg 58%
    08:00 +37°C° 0 mm 2 mps 752 mmHg 51%
    09:00 +38°C° 0 mm 2 mps 752 mmHg 44%
    10:00 +39°C° 0 mm 2 mps 752 mmHg 42%
    11:00 +40°C° 0 mm 2 mps 752 mmHg 39%
    12:00 +41°C° 0 mm 2 mps 752 mmHg 36%
    13:00 +41°C° 0 mm 2 mps 752 mmHg 37%
    14:00 +42°C° 0 mm 3 mps 751 mmHg 38%
    15:00 +42°C° 0 mm 3 mps 751 mmHg 39%
    16:00 +40°C° 0 mm 3 mps 751 mmHg 43%
    17:00 +39°C° 0 mm 3 mps 751 mmHg 46%
    18:00 +38°C° 0 mm 3 mps 751 mmHg 50%
    19:00 +37°C° 0 mm 3 mps 752 mmHg 54%
    20:00 +36°C° 0 mm 3 mps 752 mmHg 58%
    21:00 +36°C° 0 mm 3 mps 752 mmHg 61%
    22:00 +35°C° 0 mm 2 mps 752 mmHg 63%
    23:00 +35°C° 0 mm 2 mps 752 mmHg 65%

    Day after tomorrow, 22 September, Saturday

    Time Temperature Precipitation Wind Pressure Humidity
    00:00 +33°C° 0 mm 1 mps 752 mmHg 67%
    01:00 +32°C° 0 mm 1 mps 752 mmHg 68%
    02:00 +32°C° 0 mm 1 mps 752 mmHg 69%
    03:00 +29°C° 0 mm 0 mps 751 mmHg 70%
    04:00 +29°C° 0 mm 0 mps 752 mmHg 70%
    05:00 +29°C° 0 mm 0 mps 752 mmHg 69%
    06:00 +29°C° 0 mm 0 mps 752 mmHg 68%
    07:00 +31°C° 0 mm 0 mps 753 mmHg 62%
    08:00 +33°C° 0 mm 0 mps 753 mmHg 55%
    09:00 +34°C° 0 mm 0 mps 753 mmHg 49%
    10:00 +39°C° 0 mm 1 mps 753 mmHg 44%
    11:00 +40°C° 0 mm 1 mps 753 mmHg 39%
    12:00 +41°C° 0 mm 1 mps 753 mmHg 34%
    13:00 +42°C° 0 mm 1 mps 752 mmHg 32%
    14:00 +42°C° 0 mm 2 mps 752 mmHg 31%
    15:00 +43°C° 0 mm 3 mps 751 mmHg 29%
    16:00 +42°C° 0 mm 3 mps 751 mmHg 34%
    17:00 +40°C° 0 mm 4 mps 751 mmHg 39%
    18:00 +38°C° 0 mm 4 mps 752 mmHg 45%
    19:00 +37°C° 0 mm 4 mps 752 mmHg 48%
    20:00 +37°C° 0 mm 4 mps 752 mmHg 52%
    21:00 +36°C° 0 mm 3 mps 753 mmHg 56%
    22:00 +35°C° 0 mm 3 mps 753 mmHg 58%
    23:00 +35°C° 0 mm 2 mps 753 mmHg 59%

    23 September, Sunday

    Time Temperature Precipitation Wind Pressure Humidity
    00:00 +33°C° 0 mm 1 mps 753 mmHg 61%
    01:00 +33°C° 0 mm 1 mps 752 mmHg 61%
    02:00 +32°C° 0 mm 1 mps 752 mmHg 61%
    03:00 +32°C° 0 mm 1 mps 752 mmHg 61%
    04:00 +32°C° 0 mm 1 mps 752 mmHg 60%
    05:00 +32°C° 0 mm 1 mps 753 mmHg 60%
    06:00 +32°C° 0 mm 1 mps 753 mmHg 59%
    07:00 +34°C° 0 mm 1 mps 753 mmHg 53%
    08:00 +35°C° 0 mm 1 mps 754 mmHg 47%
    09:00 +37°C° 0 mm 1 mps 754 mmHg 42%
    10:00 +39°C° 0 mm 1 mps 754 mmHg 39%
    11:00 +40°C° 0 mm 1 mps 753 mmHg 35%
    12:00 +41°C° 0 mm 2 mps 753 mmHg 32%
    13:00 +41°C° 0 mm 2 mps 753 mmHg 31%
    14:00 +42°C° 0 mm 3 mps 752 mmHg 30%
    15:00 +42°C° 0 mm 4 mps 752 mmHg 28%
    16:00 +41°C° 0 mm 4 mps 752 mmHg 33%
    17:00 +40°C° 0 mm 4 mps 752 mmHg 37%
    18:00 +38°C° 0 mm 4 mps 752 mmHg 41%
    19:00 +37°C° 0 mm 3 mps 752 mmHg 44%
    20:00 +36°C° 0 mm 3 mps 753 mmHg 46%
    21:00 +36°C° 0 mm 3 mps 753 mmHg 49%
    22:00 +36°C° 0 mm 3 mps 753 mmHg 49%
    23:00 +35°C° 0 mm 3 mps 752 mmHg 49%

    24 September, Monday

    Time Temperature Precipitation Wind Pressure Humidity
    00:00 +35°C° 0 mm 3 mps 752 mmHg 50%
    01:00 +35°C° 0 mm 2 mps 752 mmHg 50%
    02:00 +34°C° 0 mm 2 mps 751 mmHg 51%
    03:00 +34°C° 0 mm 2 mps 751 mmHg 52%
    04:00 +34°C° 0 mm 2 mps 751 mmHg 51%
    05:00 +34°C° 0 mm 2 mps 752 mmHg 50%
    06:00 +34°C° 0 mm 2 mps 752 mmHg 50%
    07:00 +35°C° 0 mm 2 mps 752 mmHg 46%
    08:00 +36°C° 0 mm 1 mps 753 mmHg 41%
    09:00 +37°C° 0 mm 1 mps 753 mmHg 37%
    10:00 +39°C° 0 mm 1 mps 753 mmHg 35%
    11:00 +40°C° 0 mm 1 mps 752 mmHg 32%
    12:00 +41°C° 0 mm 1 mps 752 mmHg 29%
    13:00 +41°C° 0 mm 2 mps 752 mmHg 28%
    14:00 +43°C° 0 mm 3 mps 751 mmHg 28%
    15:00 +43°C° 0 mm 3 mps 751 mmHg 27%
    16:00 +40°C° 0 mm 3 mps 751 mmHg 31%
    17:00 +39°C° 0 mm 3 mps 751 mmHg 36%
    18:00 +38°C° 0 mm 3 mps 751 mmHg 40%
    19:00 +37°C° 0 mm 3 mps 751 mmHg 41%
    20:00 +37°C° 0 mm 2 mps 752 mmHg 41%
    21:00 +36°C° 0 mm 2 mps 752 mmHg 42%
    22:00 +36°C° 0 mm 2 mps 752 mmHg 42%
    23:00 +36°C° 0 mm 2 mps 751 mmHg 41%

    25 September, Tuesday

    Time Temperature Precipitation Wind Pressure Humidity
    00:00 +35°C° 0 mm 2 mps 751 mmHg 40%
    01:00 +35°C° 0 mm 2 mps 751 mmHg 43%
    02:00 +34°C° 0 mm 2 mps 751 mmHg 45%
    03:00 +34°C° 0 mm 2 mps 750 mmHg 47%
    04:00 +34°C° 0 mm 2 mps 751 mmHg 47%
    05:00 +34°C° 0 mm 2 mps 751 mmHg 48%
    06:00 +34°C° 0 mm 2 mps 752 mmHg 48%
    07:00 +36°C° 0 mm 2 mps 752 mmHg 43%
    08:00 +37°C° 0 mm 3 mps 753 mmHg 38%
    09:00 +39°C° 0 mm 3 mps 753 mmHg 34%
    10:00 +40°C° 0 mm 2 mps 753 mmHg 31%
    11:00 +41°C° 0 mm 2 mps 752 mmHg 28%
    12:00 +42°C° 0 mm 1 mps 752 mmHg 25%
    13:00 +42°C° 0 mm 2 mps 751 mmHg 23%
    14:00 +43°C° 0 mm 3 mps 751 mmHg 22%
    15:00 +44°C° 0 mm 4 mps 750 mmHg 21%
    16:00 +42°C° 0 mm 4 mps 750 mmHg 24%
    17:00 +41°C° 0 mm 4 mps 751 mmHg 27%
    18:00 +40°C° 0 mm 4 mps 751 mmHg 31%
    19:00 +38°C° 0 mm 3 mps 751 mmHg 33%
    20:00 +38°C° 0 mm 3 mps 751 mmHg 35%
    21:00 +37°C° 0 mm 3 mps 752 mmHg 37%
    22:00 +36°C° 0 mm 2 mps 751 mmHg 38%
    23:00 +36°C° 0 mm 2 mps 751 mmHg 39%
    Show more